When you browse on this site, cookies collect data to enhance your experience and personalize the content and advertising you see.
Visit our Privacy Policy to learn more. By continuing to use the site, you agree to this use of cookies and data.
  • en Suisse
  • Liste des pays
  • À 7 jours
  • Température de l'eau
  • Carte météo
  • Widgets météo
  • user-avatar
    Se connecter

    Météo par heure à Reims

    Ce jour, 22 Novembre, Vendredi

    Heure Température Précipitation Vent Pression Humidité
    00:00 +7°C° 0.1 mm 5 m/s 745 mmHg 88%
    01:00 +6°C° 0 mm 5 m/s 745 mmHg 89%
    02:00 +5°C° 0 mm 5 m/s 745 mmHg 90%
    03:00 +5°C° 0 mm 5 m/s 745 mmHg 91%
    04:00 +5°C° 0 mm 5 m/s 745 mmHg 91%
    05:00 +3°C° 0 mm 5 m/s 745 mmHg 92%
    06:00 +3°C° 0 mm 5 m/s 745 mmHg 92%
    07:00 +5°C° 0 mm 5 m/s 745 mmHg 90%
    08:00 +5°C° 0 mm 4 m/s 745 mmHg 89%
    09:00 +6°C° 0 mm 4 m/s 745 mmHg 87%
    10:00 +7°C° 0 mm 5 m/s 745 mmHg 84%
    11:00 +8°C° 0 mm 5 m/s 744 mmHg 82%
    12:00 +9°C° 0 mm 5 m/s 744 mmHg 79%
    13:00 +9°C° 0 mm 5 m/s 743 mmHg 80%
    14:00 +9°C° 0 mm 5 m/s 742 mmHg 81%
    15:00 +9°C° 0 mm 5 m/s 741 mmHg 81%
    16:00 +9°C° 0 mm 6 m/s 741 mmHg 80%
    17:00 +9°C° 0 mm 7 m/s 741 mmHg 79%
    18:00 +8°C° 0 mm 7 m/s 741 mmHg 78%
    19:00 +8°C° 0.1 mm 7 m/s 741 mmHg 76%
    20:00 +8°C° 0.1 mm 7 m/s 740 mmHg 73%
    21:00 +8°C° 0.1 mm 7 m/s 740 mmHg 71%
    22:00 +8°C° 0.7 mm 7 m/s 740 mmHg 74%
    23:00 +6°C° 0.7 mm 7 m/s 739 mmHg 77%

    Demain, 23 Novembre, Samedi

    Heure Température Précipitation Vent Pression Humidité
    00:00 +5°C° 0.7 mm 7 m/s 739 mmHg 81%
    01:00 +5°C° 0.8 mm 7 m/s 739 mmHg 82%
    02:00 +5°C° 0.8 mm 7 m/s 738 mmHg 83%
    03:00 +5°C° 0.8 mm 7 m/s 738 mmHg 84%
    04:00 +5°C° 0.6 mm 7 m/s 737 mmHg 84%
    05:00 +5°C° 0.6 mm 6 m/s 737 mmHg 84%
    06:00 +5°C° 0.6 mm 5 m/s 737 mmHg 84%
    07:00 +5°C° 0.1 mm 5 m/s 737 mmHg 83%
    08:00 +5°C° 0.1 mm 5 m/s 737 mmHg 82%
    09:00 +6°C° 0.1 mm 5 m/s 737 mmHg 82%
    10:00 +6°C° 0 mm 4 m/s 738 mmHg 80%
    11:00 +7°C° 0 mm 4 m/s 738 mmHg 78%
    12:00 +8°C° 0 mm 4 m/s 738 mmHg 77%
    13:00 +8°C° 0 mm 4 m/s 738 mmHg 77%
    14:00 +9°C° 0 mm 5 m/s 738 mmHg 78%
    15:00 +9°C° 0 mm 5 m/s 739 mmHg 78%
    16:00 +8°C° 0 mm 5 m/s 739 mmHg 81%
    17:00 +7°C° 0 mm 4 m/s 740 mmHg 84%
    18:00 +7°C° 0 mm 3 m/s 740 mmHg 88%
    19:00 +7°C° 0 mm 3 m/s 741 mmHg 88%
    20:00 +7°C° 0 mm 3 m/s 741 mmHg 88%
    21:00 +7°C° 0 mm 3 m/s 742 mmHg 89%
    22:00 +7°C° 0 mm 2 m/s 742 mmHg 89%
    23:00 +7°C° 0 mm 2 m/s 743 mmHg 90%

    Après-demain, 24 Novembre, Dimanche

    Heure Température Précipitation Vent Pression Humidité
    00:00 +7°C° 0 mm 2 m/s 743 mmHg 90%
    01:00 +7°C° 0 mm 2 m/s 744 mmHg 91%
    02:00 +6°C° 0 mm 2 m/s 744 mmHg 91%
    03:00 +6°C° 0 mm 2 m/s 745 mmHg 92%
    04:00 +6°C° 0 mm 2 m/s 745 mmHg 93%
    05:00 +6°C° 0 mm 2 m/s 746 mmHg 93%
    06:00 +6°C° 0 mm 2 m/s 746 mmHg 94%
    07:00 +7°C° 0 mm 2 m/s 747 mmHg 94%
    08:00 +7°C° 0 mm 2 m/s 748 mmHg 94%
    09:00 +8°C° 0 mm 2 m/s 749 mmHg 94%
    10:00 +9°C° 0 mm 3 m/s 749 mmHg 91%
    11:00 +9°C° 0 mm 3 m/s 749 mmHg 89%
    12:00 +10°C° 0 mm 4 m/s 750 mmHg 86%
    13:00 +8°C° 0 mm 4 m/s 750 mmHg 86%
    14:00 +9°C° 0 mm 3 m/s 750 mmHg 86%
    15:00 +9°C° 0 mm 3 m/s 750 mmHg 85%
    16:00 +8°C° 0 mm 3 m/s 751 mmHg 87%
    17:00 +7°C° 0 mm 3 m/s 751 mmHg 90%
    18:00 +5°C° 0 mm 3 m/s 751 mmHg 92%
    19:00 +5°C° 0 mm 3 m/s 751 mmHg 92%
    20:00 +5°C° 0 mm 3 m/s 751 mmHg 93%
    21:00 +5°C° 0 mm 3 m/s 752 mmHg 94%
    22:00 +5°C° 0 mm 3 m/s 751 mmHg 94%
    23:00 +5°C° 0 mm 4 m/s 751 mmHg 94%

    25 Novembre, Lundi

    Heure Température Précipitation Vent Pression Humidité
    00:00 +5°C° 0 mm 4 m/s 751 mmHg 95%
    01:00 +5°C° 0 mm 4 m/s 751 mmHg 95%
    02:00 +5°C° 0 mm 4 m/s 751 mmHg 94%
    03:00 +5°C° 0 mm 4 m/s 751 mmHg 94%
    04:00 +5°C° 0 mm 5 m/s 750 mmHg 92%
    05:00 +6°C° 0 mm 5 m/s 750 mmHg 90%
    06:00 +5°C° 0 mm 6 m/s 750 mmHg 88%
    07:00 +5°C° 0.7 mm 6 m/s 750 mmHg 89%
    08:00 +5°C° 0.7 mm 6 m/s 750 mmHg 89%
    09:00 +5°C° 0.7 mm 7 m/s 750 mmHg 89%
    10:00 +6°C° 0 mm 7 m/s 749 mmHg 89%
    11:00 +7°C° 0 mm 6 m/s 749 mmHg 89%
    12:00 +8°C° 0 mm 6 m/s 749 mmHg 89%
    13:00 +8°C° 0 mm 6 m/s 749 mmHg 89%
    14:00 +9°C° 0 mm 6 m/s 749 mmHg 89%
    15:00 +9°C° 0 mm 6 m/s 748 mmHg 90%
    16:00 +10°C° 0 mm 6 m/s 748 mmHg 90%
    17:00 +10°C° 0 mm 6 m/s 748 mmHg 91%
    18:00 +10°C° 0 mm 6 m/s 748 mmHg 91%
    19:00 +10°C° 0.1 mm 6 m/s 748 mmHg 91%
    20:00 +10°C° 0.1 mm 6 m/s 749 mmHg 91%
    21:00 +10°C° 0.1 mm 5 m/s 749 mmHg 91%
    22:00 +10°C° 0.1 mm 5 m/s 749 mmHg 90%
    23:00 +9°C° 0.1 mm 5 m/s 749 mmHg 90%

    26 Novembre, Mardi

    Heure Température Précipitation Vent Pression Humidité
    00:00 +10°C° 0.1 mm 4 m/s 749 mmHg 89%
    01:00 +8°C° 0 mm 4 m/s 749 mmHg 89%
    02:00 +8°C° 0 mm 4 m/s 749 mmHg 90%
    03:00 +7°C° 0 mm 4 m/s 749 mmHg 90%
    04:00 +7°C° 0 mm 4 m/s 749 mmHg 92%
    05:00 +8°C° 0 mm 3 m/s 749 mmHg 93%
    06:00 +7°C° 0 mm 3 m/s 749 mmHg 94%
    07:00 +8°C° 0 mm 3 m/s 749 mmHg 94%
    08:00 +8°C° 0 mm 4 m/s 749 mmHg 94%
    09:00 +8°C° 0 mm 4 m/s 748 mmHg 94%
    10:00 +10°C° 0 mm 4 m/s 748 mmHg 93%
    11:00 +10°C° 0 mm 5 m/s 747 mmHg 93%
    12:00 +11°C° 0 mm 6 m/s 746 mmHg 92%
    13:00 +11°C° 1 mm 6 m/s 745 mmHg 92%
    14:00 +12°C° 1 mm 7 m/s 745 mmHg 92%
    15:00 +12°C° 1 mm 7 m/s 744 mmHg 92%
    16:00 +14°C° 0.2 mm 7 m/s 744 mmHg 91%
    17:00 +14°C° 0.2 mm 7 m/s 744 mmHg 90%
    18:00 +13°C° 0.2 mm 8 m/s 744 mmHg 88%
    19:00 +14°C° 0.1 mm 7 m/s 744 mmHg 89%
    20:00 +12°C° 0.1 mm 7 m/s 744 mmHg 90%
    21:00 +13°C° 0.1 mm 6 m/s 744 mmHg 91%
    22:00 +13°C° 0.1 mm 6 m/s 743 mmHg 90%
    23:00 +12°C° 0.1 mm 7 m/s 742 mmHg 90%

    27 Novembre, Mercredi

    Heure Température Précipitation Vent Pression Humidité
    00:00 +12°C° 0.1 mm 7 m/s 741 mmHg 90%
    01:00 +12°C° 2.2 mm 8 m/s 741 mmHg 87%
    02:00 +12°C° 2.2 mm 9 m/s 740 mmHg 85%
    03:00 +12°C° 2.2 mm 10 m/s 739 mmHg 82%
    04:00 +11°C° 0.5 mm 9 m/s 740 mmHg 83%
    05:00 +11°C° 0.5 mm 8 m/s 740 mmHg 84%
    06:00 +10°C° 0.5 mm 6 m/s 740 mmHg 85%
    07:00 +10°C° 1.1 mm 7 m/s 740 mmHg 82%
    08:00 +11°C° 1.1 mm 8 m/s 740 mmHg 80%
    09:00 +11°C° 1.1 mm 8 m/s 740 mmHg 78%
    10:00 +11°C° 0.1 mm 9 m/s 741 mmHg 77%
    11:00 +11°C° 0.1 mm 9 m/s 741 mmHg 75%
    12:00 +11°C° 0.1 mm 9 m/s 741 mmHg 74%
    13:00 +11°C° 0.1 mm 8 m/s 742 mmHg 75%
    14:00 +11°C° 0.1 mm 7 m/s 743 mmHg 77%
    15:00 +11°C° 0.1 mm 6 m/s 743 mmHg 79%
    16:00 +10°C° 0.1 mm 6 m/s 744 mmHg 81%
    17:00 +10°C° 0.1 mm 6 m/s 744 mmHg 83%
    18:00 +10°C° 0.1 mm 5 m/s 745 mmHg 86%
    19:00 +10°C° 0.1 mm 5 m/s 745 mmHg 86%
    20:00 +9°C° 0.1 mm 5 m/s 746 mmHg 87%
    21:00 +9°C° 0.1 mm 5 m/s 747 mmHg 88%
    22:00 +9°C° 0.1 mm 5 m/s 747 mmHg 88%
    23:00 +9°C° 0 mm 5 m/s 747 mmHg 89%
    Voir plus